Snowfall_Accumulation
0.9 0.9 1.1 1.0 1.0 1.2 1.7 2.9 5.2 4.5 1.4 0.3 0.4 0.3 0.5 0.4 0.3 0.5 0.3 0.2 0.3 0.4 0.5 0.4 0.3 0.2 0.2 0.1 0.1 0.0 0.0 0.0 0.1 0.1 0.0 0.1 0.1 0.0
1.1 1.2 1.2 1.2 1.2 1.2 1.5 1.8 3.1 5.7 4.3 0.7 0.4 0.3 0.4 0.5 0.4 0.6 0.5 0.2 0.3 0.3 0.3 0.5 0.3 0.2 0.2 0.1 0.1 0.1 0.0 0.0 0.1 0.1 0.1 0.0 0.1 0.1
1.2 1.5 1.6 1.5 1.5 1.4 1.6 1.8 2.3 3.9 5.3 1.4 0.3 0.3 0.5 0.6 0.5 0.5 0.4 0.3 0.4 0.2 0.2 0.3 0.3 0.3 0.3 0.2 0.2 0.1 0.1 0.1 0.1 0.1 0.1 0.1 0.1 0.1
1.6 1.8 1.8 1.8 2.1 1.9 2.1 2.2 2.3 3.0 4.7 3.6 1.0 0.7 0.6 0.5 0.4 0.4 0.3 0.3 0.4 0.2 0.2 0.3 0.4 0.4 0.4 0.5 0.2 0.2 0.2 0.1 0.1 0.1 0.1 0.1 0.1 0.1
1.9 2.3 2.3 2.6 2.9 2.4 2.6 2.7 2.5 2.3 3.1 4.0 2.3 1.0 0.9 0.6 0.6 0.7 0.5 0.6 0.3 0.2 0.2 0.2 0.3 0.5 0.5 0.5 0.5 0.3 0.3 0.3 0.2 0.2 0.3 0.2 0.2 0.1
2.3 2.6 3.2 3.7 4.3 4.5 4.3 3.8 3.1 3.5 3.6 4.4 3.6 2.3 1.8 1.2 1.6 1.9 1.8 1.0 0.9 0.8 0.8 0.4 0.6 0.6 0.6 0.5 0.4 0.5 0.5 0.5 0.5 0.5 0.5 0.4 0.4 0.3
3.4 3.1 2.9 3.4 4.2 5.3 6.2 6.5 6.2 7.2 6.4 6.5 5.7 4.2 3.3 3.2 3.2 2.5 2.9 1.9 1.3 1.1 1.2 0.8 0.6 0.6 0.6 0.3 0.3 0.3 0.8 0.7 0.7 0.7 0.6 0.5 0.5 0.5
4.8 3.8 3.1 2.8 3.0 2.9 3.8 4.6 5.5 8.5 9.6 9.6 9.0 7.9 5.1 3.5 3.5 3.7 4.7 5.3 4.4 1.4 1.6 1.8 1.3 1.5 0.9 0.8 0.4 0.5 0.7 0.8 1.0 0.9 0.7 0.8 0.7 0.7
4.0 3.5 3.3 2.8 2.8 2.9 3.3 2.6 3.0 3.9 6.2 8.8 11.3 8.8 6.2 5.3 5.6 6.3 5.8 6.5 5.1 2.9 2.9 3.9 1.8 2.0 1.5 1.1 0.6 0.7 0.7 1.1 1.2 1.1 1.1 1.1 1.1 0.9
3.1 3.4 3.7 3.5 3.3 3.9 4.6 4.9 4.3 4.0 4.7 6.7 9.1 7.8 6.3 6.0 6.7 8.7 8.3 8.6 5.3 3.0 2.9 6.1 2.5 2.1 1.5 1.2 0.8 0.7 0.9 1.0 1.4 1.4 1.3 1.3 1.4 1.3
3.0 4.0 4.5 4.3 4.1 4.7 6.7 7.2 5.4 4.0 3.2 4.5 5.6 6.4 5.5 5.9 8.2 11.1 14.8 15.7 12.5 5.0 3.5 5.9 3.6 2.6 1.8 1.8 1.2 1.1 1.1 1.0 1.0 1.3 1.4 1.7 1.8 1.7
3.1 3.9 5.9 5.9 5.6 5.4 7.3 8.4 8.2 5.0 4.2 4.1 4.4 4.4 4.6 5.2 6.2 9.6 12.6 16.8 15.2 11.1 5.3 5.2 5.1 6.2 6.3 2.6 1.8 1.4 1.4 1.4 1.2 1.1 1.3 1.6 2.1 2.0
5.3 5.5 5.9 5.7 5.5 5.7 6.5 7.9 9.0 7.7 7.0 6.6 5.6 4.9 5.0 5.5 6.4 8.0 9.7 13.4 16.4 13.9 8.4 8.9 9.5 8.5 10.5 6.7 2.9 2.5 2.1 1.9 1.6 1.3 1.2 1.2 1.7 2.4
6.5 5.2 5.7 5.8 6.1 5.6 5.5 5.0 5.7 6.7 7.4 7.0 6.4 5.5 5.1 5.6 6.5 7.6 9.8 11.1 11.8 11.9 9.2 10.4 14.5 12.5 14.0 11.8 7.0 4.0 3.1 2.4 2.6 2.5 2.4 1.8 1.6 2.0
5.8 6.5 6.0 5.4 5.1 4.2 3.6 4.5 4.4 5.4 6.5 7.1 6.4 5.3 4.9 4.5 5.2 6.5 8.0 9.4 9.8 9.9 8.6 8.1 10.8 11.0 14.1 14.9 9.8 6.5 5.2 4.1 3.5 3.6 3.7 3.2 2.8 2.7
5.0 5.2 5.2 4.3 3.6 3.1 3.0 3.4 4.1 5.1 6.8 7.5 6.4 5.1 4.6 5.0 5.9 6.7 8.4 9.8 12.1 11.2 9.7 7.9 7.9 10.5 13.4 11.3 10.8 8.9 6.8 6.9 5.2 4.7 4.2 4.1 3.6 2.9
8.5 8.2 6.8 5.5 5.0 4.4 4.0 3.6 4.0 4.9 5.8 6.0 6.4 6.6 6.4 6.1 6.4 6.9 8.7 10.6 12.7 12.5 12.0 10.7 10.5 10.9 12.3 13.0 13.0 9.9 7.6 6.8 6.2 6.2 5.7 5.5 4.4 3.7
8.5 9.4 7.2 6.1 5.8 5.4 4.9 4.7 4.4 5.1 5.6 6.0 6.5 7.0 7.6 7.4 7.7 7.4 9.2 11.2 12.6 12.2 12.2 12.1 13.6 15.7 16.5 15.7 13.4 11.1 8.7 7.1 6.4 6.3 6.2 7.1 6.0 4.3
7.0 7.1 6.2 6.1 5.8 5.9 5.8 5.7 5.5 5.3 5.7 6.7 7.0 7.4 7.9 8.7 8.9 8.6 8.9 10.3 11.3 11.5 11.9 12.6 15.1 20.1 23.7 20.3 14.2 11.3 10.6 8.6 7.6 7.1 6.3 6.9 7.4 5.6
5.1 6.0 6.1 5.8 6.5 6.5 6.4 6.2 5.9 5.9 6.3 6.7 7.0 7.0 7.7 9.1 9.5 9.2 9.5 10.6 11.6 12.2 12.6 12.9 15.3 18.7 22.9 20.0 17.0 14.2 9.7 10.2 9.9 9.3 7.2 6.3 5.7 4.7
5.5 5.7 5.8 6.2 6.7 6.5 6.6 6.6 7.0 6.9 6.6 6.8 7.1 6.9 7.4 9.3 9.6 8.7 9.3 10.3 12.3 13.8 13.9 13.6 12.5 14.0 17.0 19.1 20.6 18.1 14.9 10.1 8.5 10.6 10.5 10.5 9.8 8.3
5.9 6.2 5.9 5.9 6.1 6.6 6.8 6.8 7.1 6.6 6.5 6.9 7.1 7.1 7.6 8.8 9.4 9.2 9.9 11.2 12.1 12.6 13.0 13.0 12.1 15.3 20.1 22.7 21.0 17.6 16.8 14.1 12.3 8.5 8.3 10.1 14.5 15.2
7.1 7.1 6.4 6.0 6.2 6.4 6.7 6.8 6.9 6.4 6.3 6.8 7.3 7.6 8.0 9.0 9.1 9.8 10.2 10.7 11.7 12.0 12.6 13.5 14.4 16.7 19.1 19.3 19.7 18.3 16.5 14.1 13.7 13.5 13.6 7.3 6.3 6.8